Location: ?????
(31.8092°N, 35.2590°E)
Time: 04:32:11
(UTC+00:00)

Lacrosse 5 - Pass Details

Date: 01 November 2021
Orbit: 714 x 724 km, 57.0° (Epoch: 28 August)

Event Time Altitude Azimuth Distance (km) Brightness Sun altitude
Rises 15:22:03 0° 222° (SW) 3,121 6.2 -7.5°
Reaches altitude 10° 15:24:26 10° 224° (SW) 2,204 5.4 -8.0°
Maximum altitude 15:29:30 71° 309° (NW) 764 2.2 -9.1°
Drops below altitude 10° 15:34:36 10° 33° (NNE) 2,215 4.0 -10.2°
Enters shadow 15:35:57 - 35° (NE) 2,735 4.4 -10.4°
